sat.trackr.live / text

‹ back to catalog

STARLINK-37842

NORAD 69487 · 2026-131K

PAYLOAD ACTIVE UNKNOWN

§ Identity

Operator
Country
US
Launch date
2026-06-11
Launch site
AFWTR
Launch vehicle
Mass (kg)
RCS (m²)

Purposes: comms

External: N2YO · Heavens-Above · Gunter

§ Orbital elements

Epoch: 2026-09-20T00:30:18.826272Z

Period
93.91 min
Inclination
97.2846°
Eccentricity
0.0001635
Mean motion
15.33451531 rev/d
Perigee alt
464.4 km
Apogee alt
466.6 km
Semi-major
6,843.7 km
B*
3.1179e-4
RAAN
283.8858°
Arg perigee
84.8417°
Mean anomaly
275.3012°
Rev number
1,682

§ Raw data

STARLINK-378421 69487U 26131K   26263.02105123  .00010006  00000+0  31179-3 0  99902 69487  97.2846 283.8858 0001635  84.8417 275.3012 15.33451531 16829

JSON: /api/v1/satellites/69487 · /tle

For live sub-satellite position, see the globe view (requires WebGL).

§ Visibility from observer

Set your observer location to see the next 7 days of passes ≥ 10°. The values pass through the URL so the page stays shareable.

No JS? Fill the form by hand. The geolocation button needs JavaScript.